| time (UTC) | temp C | wind direction | speed KPH | gust KPH | rain 1hr cm | rain 24hr cm | rain mn cm | humidity % | barometer mb |
| 20260901231011 | 12 | 252 | 6.4 | 11.3 | 0.03 | 0.13 | 0.03 | 93 | 1015.0 |
| 20260901230514 | 12 | 248 | 4.8 | 8.0 | 0.03 | 0.13 | 0.03 | 93 | 1015.0 |
| 20260901230025 | 12 | 252 | 3.2 | 6.4 | 0.03 | 0.13 | 0.03 | 93 | 1014.9 |
| 20260901225515 | 13 | 246 | 1.6 | 4.8 | 0.03 | 0.13 | 0.03 | 93 | 1014.9 |
| 20260901225015 | 13 | 268 | 1.6 | 8.0 | 0.03 | 0.13 | 0.03 | 93 | 1015.0 |
| 20260901224535 | 12 | 247 | 3.2 | 8.0 | 0.03 | 0.13 | 0.03 | 93 | 1014.9 |
| 20260901224008 | 12 | 219 | 4.8 | 8.0 | 0.00 | 0.10 | 0.00 | 93 | 1015.0 |
| 20260901223505 | 12 | 215 | 1.6 | 4.8 | 0.00 | 0.08 | 0.00 | 92 | 1014.9 |
| 20260901223013 | 12 | 240 | 1.6 | 4.8 | 0.00 | 0.08 | 0.00 | 92 | 1014.9 |
| 20260901222509 | 12 | 242 | 1.6 | 4.8 | 0.00 | 0.08 | 0.00 | 92 | 1014.9 |
| 20260901222010 | 12 | 254 | 3.2 | 8.0 | 0.00 | 0.08 | 0.00 | 92 | 1014.8 |
| 20260901221518 | 12 | 240 | 4.8 | 8.0 | 0.00 | 0.08 | 0.00 | 92 | 1014.9 |
| 20260901221018 | 12 | 258 | 4.8 | 11.3 | 0.00 | 0.08 | 0.00 | 92 | 1014.8 |
| 20260901220512 | 12 | 264 | 3.2 | 11.3 | 0.00 | 0.08 | 0.00 | 92 | 1014.8 |
| 20260901220025 | 12 | 273 | 3.2 | 8.0 | 0.00 | 0.08 | 0.00 | 92 | 1014.9 |
| 20260901215516 | 12 | 261 | 1.6 | 4.8 | 0.00 | 0.08 | 0.08 | 92 | 1014.8 |
| 20260901215016 | 12 | 268 | 1.6 | 6.4 | 0.00 | 0.08 | 0.08 | 92 | 1014.8 |
| 20260901214533 | 12 | 266 | 1.6 | 6.4 | 0.00 | 0.08 | 0.08 | 92 | 1014.9 |
| 20260901214007 | 12 | 267 | 4.8 | 6.4 | 0.00 | 0.08 | 0.08 | 91 | 1014.8 |
| 20260901213507 | 13 | 259 | 4.8 | 6.4 | 0.00 | 0.08 | 0.08 | 92 | 1014.7 |
| 20260901213021 | 13 | 263 | 3.2 | 4.8 | 0.00 | 0.08 | 0.08 | 91 | 1014.7 |
| 20260901212508 | 13 | 262 | 4.8 | 6.4 | 0.00 | 0.08 | 0.08 | 91 | 1014.7 |
| 20260901212016 | 13 | 254 | 3.2 | 6.4 | 0.00 | 0.08 | 0.08 | 91 | 1014.7 |
| 20260901211525 | 13 | 264 | 3.2 | 6.4 | 0.00 | 0.08 | 0.08 | 91 | 1014.6 |
| 20260901211013 | 13 | 273 | 3.2 | 9.7 | 0.00 | 0.08 | 0.08 | 91 | 1014.7 |
| 20260901210517 | 13 | 284 | 4.8 | 11.3 | 0.00 | 0.08 | 0.08 | 91 | 1014.6 |
| 20260901210027 | 13 | 257 | 4.8 | 11.3 | 0.00 | 0.08 | 0.08 | 91 | 1014.6 |
| 20260901205516 | 13 | 283 | 3.2 | 11.3 | 0.00 | 0.08 | 0.08 | 91 | 1014.6 |
| 20260901205018 | 13 | 272 | 3.2 | 11.3 | 0.00 | 0.08 | 0.08 | 91 | 1014.6 |
| 20260901204532 | 13 | 259 | 4.8 | 12.9 | 0.00 | 0.08 | 0.08 | 91 | 1014.6 |
| 20260901204008 | 13 | 275 | 3.2 | 12.9 | 0.00 | 0.08 | 0.08 | 91 | 1014.6 |
| 20260901203507 | 14 | 264 | 6.4 | 12.9 | 0.00 | 0.08 | 0.08 | 91 | 1014.6 |
| 20260901203019 | 14 | 267 | 4.8 | 11.3 | 0.05 | 0.08 | 0.08 | 91 | 1014.7 |
| 20260901202512 | 14 | 271 | 6.4 | 11.3 | 0.08 | 0.08 | 0.08 | 91 | 1014.6 |
| 20260901202014 | 14 | 263 | 4.8 | 11.3 | 0.08 | 0.08 | 0.08 | 91 | 1014.6 |
| 20260901201524 | 14 | 275 | 4.8 | 11.3 | 0.08 | 0.08 | 0.08 | 91 | 1014.5 |
| 20260901201016 | 15 | 271 | 4.8 | 16.1 | 0.08 | 0.08 | 0.08 | 91 | 1014.5 |
| 20260901200520 | 15 | 270 | 6.4 | 16.1 | 0.08 | 0.08 | 0.08 | 91 | 1014.4 |
| 20260901200028 | 15 | 267 | 3.2 | 6.4 | 0.08 | 0.08 | 0.08 | 91 | 1014.4 |
| 20260901195516 | 15 | 267 | 1.6 | 3.2 | 0.08 | 0.08 | 0.08 | 91 | 1014.3 |
| 20260901195021 | 15 | 268 | 1.6 | 6.4 | 0.08 | 0.08 | 0.08 | 90 | 1014.4 |
| 20260901194513 | 15 | 264 | 3.2 | 11.3 | 0.08 | 0.08 | 0.08 | 90 | 1014.3 |
| 20260901194013 | 15 | 259 | 4.8 | 11.3 | 0.08 | 0.08 | 0.08 | 90 | 1014.3 |
| 20260901193512 | 15 | 275 | 4.8 | 17.7 | 0.08 | 0.08 | 0.08 | 90 | 1014.2 |
| 20260901193024 | 16 | 295 | 8.0 | 20.9 | 0.03 | 0.03 | 0.03 | 90 | 1014.2 |
| 20260901192516 | 16 | 240 | 12.9 | 27.4 | 0.00 | 0.00 | 0.00 | 89 | 1014.2 |
| 20260901192013 | 15 | 240 | 16.1 | 27.4 | 0.00 | 0.00 | 0.00 | 90 | 1013.9 |
| 20260901191527 | 15 | 274 | 6.4 | 12.9 | 0.00 | 0.00 | 0.00 | 89 | 1013.9 |
| 20260901191014 | 15 | 259 | 4.8 | 12.9 | 0.00 | 0.00 | 0.00 | 89 | 1013.8 |
| 20260901190515 | 15 | 258 | 6.4 | 12.9 | 0.00 | 0.00 | 0.00 | 89 | 1013.8 |
| 20260901190037 | 15 | 247 | 8.0 | 12.9 | 0.00 | 0.00 | 0.00 | 88 | 1013.7 |
| 20260901185520 | 15 | 263 | 6.4 | 12.9 | 0.00 | 0.00 | 0.00 | 88 | 1013.7 |
| 20260901185019 | 15 | 247 | 4.8 | 12.9 | 0.00 | 0.00 | 0.00 | 88 | 1013.7 |
| 20260901184514 | 15 | 253 | 6.4 | 11.3 | 0.00 | 0.00 | 0.00 | 89 | 1013.6 |
| 20260901184012 | 15 | 257 | 6.4 | 12.9 | 0.00 | 0.00 | 0.00 | 89 | 1013.7 |
| 20260901183515 | 15 | 256 | 4.8 | 12.9 | 0.00 | 0.00 | 0.00 | 89 | 1013.6 |
| 20260901183039 | 15 | 264 | 6.4 | 12.9 | 0.00 | 0.00 | 0.00 | 88 | 1013.5 |
| 20260901182512 | 15 | 229 | 3.2 | 6.4 | 0.00 | 0.00 | 0.00 | 88 | 1013.5 |
| 20260901182014 | 15 | 252 | 4.8 | 6.4 | 0.00 | 0.00 | 0.00 | 87 | 1013.5 |
| 20260901181530 | 15 | 250 | 3.2 | 4.8 | 0.00 | 0.00 | 0.00 | 87 | 1013.4 |
| 20260901181014 | 16 | 250 | 1.6 | 3.2 | 0.00 | 0.00 | 0.00 | 86 | 1013.4 |
| 20260901180519 | 16 | 246 | 1.6 | 4.8 | 0.00 | 0.00 | 0.00 | 86 | 1013.5 |
| 20260901180031 | 16 | 246 | 1.6 | 6.4 | 0.00 | 0.00 | 0.00 | 85 | 1013.4 |
| 20260901175518 | 16 | 254 | 3.2 | 11.3 | 0.00 | 0.00 | 0.00 | 85 | 1013.3 |
| 20260901175009 | 16 | 258 | 4.8 | 11.3 | 0.00 | 0.00 | 0.00 | 84 | 1013.3 |
| 20260901174519 | 16 | 240 | 6.4 | 11.3 | 0.00 | 0.00 | 0.00 | 84 | 1013.2 |
| 20260901174011 | 16 | 261 | 4.8 | 11.3 | 0.00 | 0.00 | 0.00 | 84 | 1013.2 |
| 20260901173515 | 16 | 254 | 4.8 | 11.3 | 0.00 | 0.00 | 0.00 | 84 | 1013.1 |
| 20260901173027 | 17 | 261 | 4.8 | 14.5 | 0.00 | 0.00 | 0.00 | 83 | 1013.1 |
| 20260901172516 | 17 | 251 | 8.0 | 19.3 | 0.00 | 0.00 | 0.00 | 82 | 1013.1 |
| 20260901172016 | 17 | 244 | 8.0 | 19.3 | 0.00 | 0.00 | 0.00 | 84 | 1013.1 |
| 20260901171545 | 17 | 244 | 8.0 | 14.5 | 0.00 | 0.00 | 0.00 | 84 | 1013.1 |
| 20260901171020 | 17 | 260 | 9.7 | 16.1 | 0.00 | 0.00 | 0.00 | 84 | 1013.0 |
| 20260901170518 | 17 | 233 | 9.7 | 19.3 | 0.00 | 0.00 | 0.00 | 84 | 1012.9 |
| 20260901170047 | 17 | 254 | 11.3 | 19.3 | 0.00 | 0.00 | 0.00 | 84 | 1012.9 |
| 20260901165516 | 17 | 213 | 4.8 | 8.0 | 0.00 | 0.00 | 0.00 | 85 | 1012.9 |
| 20260901165010 | 17 | 250 | 4.8 | 11.3 | 0.00 | 0.00 | 0.00 | 85 | 1012.9 |
| 20260901164523 | 17 | 247 | 4.8 | 11.3 | 0.00 | 0.00 | 0.00 | 84 | 1012.9 |
| 20260901164015 | 17 | 233 | 4.8 | 11.3 | 0.00 | 0.00 | 0.00 | 84 | 1012.9 |
| 20260901163513 | 17 | 239 | 8.0 | 11.3 | 0.00 | 0.00 | 0.00 | 84 | 1012.9 |
| 20260901163031 | 17 | 255 | 6.4 | 12.9 | 0.00 | 0.00 | 0.00 | 84 | 1012.9 |
| 20260901162516 | 17 | 239 | 6.4 | 14.5 | 0.00 | 0.00 | 0.00 | 84 | 1012.8 |
| 20260901162020 | 17 | 252 | 6.4 | 16.1 | 0.00 | 0.00 | 0.00 | 85 | 1012.8 |
| 20260901161531 | 17 | 236 | 11.3 | 16.1 | 0.00 | 0.00 | 0.00 | 84 | 1012.8 |
| 20260901161019 | 17 | 254 | 8.0 | 14.5 | 0.00 | 0.00 | 0.00 | 83 | 1012.8 |
| 20260901160519 | 17 | 258 | 6.4 | 20.9 | 0.00 | 0.00 | 0.00 | 82 | 1012.8 |
| 20260901160037 | 17 | 249 | 9.7 | 20.9 | 0.00 | 0.00 | 0.00 | 80 | 1012.8 |
| 20260901155515 | 18 | 273 | 12.9 | 20.9 | 0.00 | 0.00 | 0.00 | 78 | 1012.8 |
| 20260901155012 | 18 | 300 | 11.3 | 20.9 | 0.00 | 0.00 | 0.00 | 77 | 1012.7 |
| 20260901154524 | 18 | 261 | 14.5 | 24.1 | 0.00 | 0.00 | 0.00 | 76 | 1012.6 |
| 20260901154016 | 18 | 235 | 19.3 | 24.1 | 0.00 | 0.00 | 0.00 | 74 | 1012.6 |
| 20260901153517 | 19 | 260 | 11.3 | 22.5 | 0.00 | 0.00 | 0.00 | 74 | 1012.6 |
| 20260901153030 | 19 | 250 | 9.7 | 22.5 | 0.00 | 0.00 | 0.00 | 74 | 1012.5 |
| 20260901152518 | 20 | 267 | 6.4 | 17.7 | 0.00 | 0.00 | 0.00 | 74 | 1012.5 |
| 20260901152018 | 20 | 298 | 4.8 | 16.1 | 0.00 | 0.00 | 0.00 | 72 | 1012.4 |
| 20260901151531 | 20 | 286 | 6.4 | 16.1 | 0.00 | 0.00 | 0.00 | 73 | 1012.5 |
| 20260901151018 | 20 | 251 | 4.8 | 20.9 | 0.00 | 0.00 | 0.00 | 72 | 1012.4 |
| 20260901150519 | 20 | 279 | 12.9 | 19.3 | 0.00 | 0.00 | 0.00 | 71 | 1012.3 |
| 20260901150038 | 20 | 270 | 12.9 | 19.3 | 0.00 | 0.00 | 0.00 | 70 | 1012.3 |
| 20260901145511 | 20 | 253 | 9.7 | 20.9 | 0.00 | 0.00 | 0.00 | 72 | 1012.4 |
| 20260901145013 | 20 | 230 | 11.3 | 20.9 | 0.00 | 0.00 | 0.00 | 72 | 1012.4 |
| 20260901144526 | 20 | 252 | 9.7 | 20.9 | 0.00 | 0.00 | 0.00 | 68 | 1012.3 |
| 20260901144016 | 21 | 277 | 4.8 | 19.3 | 0.00 | 0.00 | 0.00 | 71 | 1012.3 |
| 20260901143519 | 20 | 240 | 12.9 | 19.3 | 0.00 | 0.00 | 0.00 | 67 | 1012.3 |
| 20260901143032 | 20 | 281 | 6.4 | 19.3 | 0.00 | 0.00 | 0.00 | 72 | 1012.3 |
| 20260901142518 | 20 | 233 | 9.7 | 19.3 | 0.00 | 0.00 | 0.00 | 70 | 1012.3 |
| 20260901142016 | 20 | 254 | 6.4 | 20.9 | 0.00 | 0.00 | 0.00 | 72 | 1012.3 |
| 20260901141540 | 20 | 254 | 12.9 | 20.9 | 0.00 | 0.00 | 0.00 | 71 | 1012.2 |
| 20260901141022 | 21 | 244 | 9.7 | 22.5 | 0.00 | 0.00 | 0.00 | 67 | 1012.2 |
| 20260901140519 | 20 | 265 | 16.1 | 24.1 | 0.00 | 0.00 | 0.00 | 68 | 1012.3 |
| 20260901140034 | 20 | 256 | 16.1 | 24.1 | 0.00 | 0.00 | 0.00 | 69 | 1012.2 |
| 20260901135513 | 20 | 241 | 11.3 | 27.4 | 0.00 | 0.00 | 0.00 | 69 | 1012.2 |
| 20260901135014 | 20 | 237 | 17.7 | 27.4 | 0.00 | 0.00 | 0.00 | 69 | 1012.3 |
| 20260901134527 | 20 | 258 | 6.4 | 20.9 | 0.00 | 0.00 | 0.00 | 72 | 1012.3 |
| 20260901134015 | 20 | 273 | 8.0 | 20.9 | 0.00 | 0.00 | 0.00 | 70 | 1012.2 |
| 20260901133515 | 21 | 278 | 9.7 | 17.7 | 0.00 | 0.00 | 0.00 | 69 | 1012.2 |
| 20260901133029 | 21 | 314 | 6.4 | 22.5 | 0.00 | 0.00 | 0.00 | 70 | 1012.2 |
| 20260901132516 | 21 | 298 | 6.4 | 22.5 | 0.00 | 0.00 | 0.00 | 72 | 1012.2 |
| 20260901132018 | 21 | 272 | 11.3 | 20.9 | 0.00 | 0.00 | 0.00 | 71 | 1012.2 |
| 20260901131538 | 21 | 240 | 14.5 | 20.9 | 0.00 | 0.00 | 0.00 | 70 | 1012.3 |
| 20260901131022 | 20 | 327 | 8.0 | 19.3 | 0.00 | 0.00 | 0.00 | 77 | 1012.2 |
| 20260901130521 | 20 | 252 | 11.3 | 20.9 | 0.00 | 0.00 | 0.00 | 74 | 1012.3 |
| 20260901130023 | 21 | 261 | 11.3 | 22.5 | 0.00 | 0.30 | 0.00 | 71 | 1012.3 |
| 20260901125513 | 20 | 272 | 11.3 | 22.5 | 0.00 | 0.91 | 0.00 | 74 | 1012.2 |
| 20260901125015 | 21 | 266 | 11.3 | 17.7 | 0.00 | 1.63 | 0.00 | 70 | 1012.1 |
| 20260901124505 | 21 | 261 | 9.7 | 20.9 | 0.00 | 1.65 | 0.00 | 73 | 1012.1 |
| 20260901124003 | 20 | 325 | 8.0 | 20.9 | 0.00 | 1.65 | 0.00 | 76 | 1012.1 |
| 20260901123506 | 19 | 255 | 8.0 | 19.3 | 0.00 | 1.65 | 0.00 | 75 | 1012.2 |
| 20260901123021 | 20 | 297 | 9.7 | 20.9 | 0.00 | 1.65 | 0.00 | 75 | 1012.1 |
| 20260901122508 | 20 | 231 | 12.9 | 24.1 | 0.00 | 1.65 | 0.00 | 73 | 1012.1 |
| 20260901122011 | 21 | 256 | 12.9 | 24.1 | 0.00 | 1.65 | 0.00 | 75 | 1012.2 |
| 20260901121518 | 21 | 228 | 11.3 | 20.9 | 0.00 | 1.65 | 0.00 | 72 | 1012.2 |
| 20260901121014 | 21 | 258 | 9.7 | 19.3 | 0.00 | 1.65 | 0.00 | 76 | 1012.2 |
| 20260901120513 | 20 | 268 | 8.0 | 22.5 | 0.00 | 1.65 | 0.00 | 75 | 1012.3 |
| 20260901120028 | 20 | 257 | 9.7 | 22.5 | 0.00 | 1.65 | 0.00 | 73 | 1012.3 |
| 20260901115514 | 21 | 290 | 14.5 | 22.5 | 0.00 | 1.65 | 0.00 | 74 | 1012.3 |
| 20260901115017 | 21 | 269 | 9.7 | 20.9 | 0.00 | 1.65 | 0.00 | 73 | 1012.3 |
| 20260901114505 | 21 | 288 | 6.4 | 19.3 | 0.00 | 1.65 | 0.00 | 74 | 1012.3 |
| 20260901114009 | 21 | 304 | 9.7 | 19.3 | 0.00 | 1.65 | 0.00 | 75 | 1012.3 |
| 20260901113507 | 21 | 316 | 11.3 | 16.1 | 0.00 | 1.65 | 0.00 | 74 | 1012.3 |
| 20260901113012 | 20 | 303 | 8.0 | 19.3 | 0.00 | 1.65 | 0.00 | 78 | 1012.3 |
| 20260901112512 | 20 | 286 | 9.7 | 19.3 | 0.00 | 1.65 | 0.00 | 79 | 1012.3 |
| 20260901112011 | 20 | 246 | 9.7 | 19.3 | 0.00 | 1.65 | 0.00 | 78 | 1012.3 |
| 20260901111522 | 19 | 326 | 9.7 | 19.3 | 0.00 | 1.65 | 0.00 | 79 | 1012.4 |
| 20260901111016 | 20 | 263 | 9.7 | 19.3 | 0.00 | 1.65 | 0.00 | 79 | 1012.3 |
| 20260901110512 | 20 | 249 | 11.3 | 19.3 | 0.00 | 1.65 | 0.00 | 82 | 1012.3 |
| 20260901110027 | 18 | 313 | 11.3 | 20.9 | 0.00 | 1.70 | 0.00 | 82 | 1012.3 |
| 20260901105520 | 18 | 259 | 12.9 | 20.9 | 0.00 | 1.88 | 0.00 | 79 | 1012.2 |
| 20260901105004 | 19 | 305 | 11.3 | 24.1 | 0.00 | 2.16 | 0.00 | 80 | 1012.1 |
| 20260901104508 | 19 | 276 | 11.3 | 24.1 | 0.00 | 2.24 | 0.00 | 79 | 1012.1 |
| 20260901104008 | 19 | 252 | 14.5 | 20.9 | 0.00 | 2.24 | 0.00 | 82 | 1012.0 |
| 20260901103509 | 18 | 238 | 8.0 | 20.9 | 0.00 | 2.24 | 0.00 | 82 | 1012.0 |
| 20260901103014 | 18 | 258 | 9.7 | 20.9 | 0.00 | 2.24 | 0.00 | 81 | 1012.0 |
| 20260901102512 | 19 | 295 | 12.9 | 24.1 | 0.00 | 2.24 | 0.00 | 78 | 1011.9 |
| 20260901102012 | 18 | 298 | 6.4 | 24.1 | 0.00 | 2.24 | 0.00 | 81 | 1011.9 |
| 20260901101523 | 19 | 271 | 11.3 | 20.9 | 0.00 | 2.24 | 0.00 | 82 | 1011.8 |
| 20260901101018 | 18 | 277 | 9.7 | 20.9 | 0.00 | 2.24 | 0.00 | 86 | 1011.8 |
| 20260901100519 | 17 | 269 | 8.0 | 20.9 | 0.00 | 2.24 | 0.00 | 86 | 1011.8 |
| 20260901100027 | 17 | 232 | 9.7 | 19.3 | 0.00 | 2.24 | 0.00 | 85 | 1011.8 |
| 20260901095516 | 17 | 240 | 9.7 | 19.3 | 0.00 | 2.24 | 0.00 | 84 | 1011.7 |
| 20260901095008 | 17 | 247 | 12.9 | 19.3 | 0.00 | 2.24 | 0.00 | 83 | 1011.7 |
| 20260901094512 | 18 | 276 | 11.3 | 16.1 | 0.00 | 2.24 | 0.00 | 84 | 1011.7 |
| 20260901094010 | 18 | 280 | 6.4 | 17.7 | 0.00 | 2.24 | 0.00 | 85 | 1011.6 |
| 20260901093510 | 17 | 286 | 8.0 | 17.7 | 0.00 | 2.24 | 0.00 | 85 | 1011.6 |
| 20260901093017 | 18 | 252 | 12.9 | 17.7 | 0.00 | 2.24 | 0.00 | 85 | 1011.5 |
| 20260901092513 | 18 | 240 | 9.7 | 19.3 | 0.00 | 2.24 | 0.00 | 85 | 1011.5 |
| 20260901092015 | 18 | 236 | 14.5 | 19.3 | 0.00 | 2.24 | 0.00 | 85 | 1011.5 |
| 20260901091524 | 17 | 266 | 9.7 | 14.5 | 0.00 | 2.24 | 0.00 | 87 | 1011.5 |
| 20260901091016 | 17 | 268 | 9.7 | 17.7 | 0.00 | 2.24 | 0.00 | 87 | 1011.4 |
| 20260901090516 | 17 | 254 | 6.4 | 17.7 | 0.00 | 2.24 | 0.00 | 88 | 1011.4 |
| 20260901090032 | 17 | 284 | 6.4 | 16.1 | 0.00 | 2.24 | 0.00 | 88 | 1011.3 |
| 20260901085518 | 17 | 237 | 8.0 | 17.7 | 0.00 | 2.24 | 0.00 | 88 | 1011.2 |
| 20260901085008 | 17 | 252 | 11.3 | 17.7 | 0.00 | 2.24 | 0.00 | 87 | 1011.2 |
| 20260901084514 | 17 | 250 | 8.0 | 16.1 | 0.00 | 2.24 | 0.00 | 86 | 1011.1 |
| 20260901084010 | 17 | 271 | 6.4 | 16.1 | 0.00 | 2.24 | 0.00 | 90 | 1011.1 |
| 20260901083515 | 17 | 288 | 8.0 | 16.1 | 0.00 | 2.24 | 0.00 | 88 | 1011.0 |
| 20260901083021 | 17 | 271 | 6.4 | 17.7 | 0.00 | 2.24 | 0.00 | 89 | 1010.8 |
| 20260901082516 | 17 | 318 | 9.7 | 22.5 | 0.00 | 2.24 | 0.00 | 89 | 1010.7 |
| 20260901082016 | 16 | 248 | 8.0 | 22.5 | 0.00 | 2.24 | 0.00 | 88 | 1010.6 |
| 20260901081528 | 17 | 254 | 11.3 | 17.7 | 0.00 | 2.24 | 0.00 | 88 | 1010.6 |
| 20260901081014 | 17 | 265 | 8.0 | 14.5 | 0.00 | 2.24 | 0.00 | 89 | 1010.6 |
| 20260901080516 | 17 | 265 | 6.4 | 17.7 | 0.00 | 2.24 | 0.00 | 89 | 1010.5 |
| 20260901080040 | 17 | 284 | 12.9 | 17.7 | 0.00 | 2.24 | 0.00 | 87 | 1010.4 |
| 20260901075507 | 17 | 271 | 8.0 | 17.7 | 0.00 | 2.26 | 0.00 | 90 | 1010.3 |
| 20260901075015 | 17 | 241 | 6.4 | 19.3 | 0.00 | 2.31 | 0.00 | 91 | 1010.3 |
| 20260901074516 | 17 | 254 | 11.3 | 19.3 | 0.00 | 2.31 | 0.00 | 90 | 1010.2 |
| 20260901074012 | 17 | 250 | 6.4 | 14.5 | 0.00 | 2.31 | 0.00 | 92 | 1010.1 |
| 20260901073511 | 16 | 297 | 4.8 | 14.5 | 0.00 | 2.31 | 0.00 | 93 | 1010.1 |
| 20260901073035 | 16 | 268 | 4.8 | 12.9 | 0.00 | 2.31 | 0.00 | 92 | 1010.1 |
| 20260901072513 | 16 | 266 | 4.8 | 16.1 | 0.00 | 2.31 | 0.00 | 93 | 1010.1 |
| 20260901072016 | 16 | 276 | 6.4 | 16.1 | 0.00 | 2.31 | 0.00 | 93 | 1010.1 |
| 20260901071528 | 16 | 284 | 6.4 | 12.9 | 0.00 | 2.31 | 0.00 | 94 | 1010.2 |
| 20260901071019 | 16 | 296 | 4.8 | 19.3 | 0.00 | 2.31 | 0.00 | 94 | 1010.1 |
| 20260901070518 | 16 | 259 | 6.4 | 19.3 | 0.00 | 2.31 | 0.00 | 94 | 1010.0 |
| 20260901070032 | 16 | 255 | 8.0 | 16.1 | 0.00 | 2.31 | 0.00 | 94 | 1010.0 |
| 20260901065512 | 16 | 243 | 9.7 | 16.1 | 0.00 | 2.31 | 0.00 | 94 | 1010.0 |
| 20260901065010 | 16 | 262 | 11.3 | 16.1 | 0.00 | 2.31 | 0.00 | 94 | 1009.9 |
| 20260901064518 | 16 | 236 | 6.4 | 11.3 | 0.00 | 2.31 | 0.00 | 95 | 1009.9 |
| 20260901064015 | 15 | 259 | 8.0 | 12.9 | 0.00 | 2.31 | 0.00 | 95 | 1009.7 |
| 20260901063514 | 15 | 266 | 8.0 | 12.9 | 0.00 | 2.31 | 0.00 | 95 | 1009.6 |
| 20260901063028 | 15 | 264 | 6.4 | 16.1 | 0.00 | 2.31 | 0.00 | 95 | 1009.6 |
| 20260901062514 | 15 | 257 | 9.7 | 16.1 | 0.00 | 2.31 | 0.00 | 95 | 1009.6 |
| 20260901062016 | 15 | 250 | 3.2 | 9.7 | 0.00 | 2.31 | 0.00 | 95 | 1009.6 |
| 20260901061532 | 15 | 257 | 4.8 | 9.7 | 0.00 | 2.31 | 0.00 | 95 | 1009.5 |
| 20260901061019 | 15 | 236 | 4.8 | 9.7 | 0.00 | 2.31 | 0.00 | 95 | 1009.5 |
| 20260901060519 | 15 | 242 | 6.4 | 11.3 | 0.00 | 2.31 | 0.00 | 95 | 1009.6 |
| 20260901060034 | 15 | 264 | 8.0 | 11.3 | 0.00 | 2.31 | 0.00 | 95 | 1009.5 |
| 20260901055513 | 15 | 250 | 3.2 | 9.7 | 0.00 | 2.31 | 0.00 | 95 | 1009.6 |
| 20260901055015 | 15 | 241 | 4.8 | 8.0 | 0.00 | 2.31 | 0.00 | 95 | 1009.6 |
| 20260901054521 | 15 | 248 | 4.8 | 6.4 | 0.00 | 2.31 | 0.00 | 95 | 1009.5 |
| 20260901054014 | 15 | 250 | 3.2 | 8.0 | 0.00 | 2.31 | 0.00 | 95 | 1009.4 |
| 20260901053515 | 15 | 257 | 3.2 | 8.0 | 0.00 | 2.31 | 0.00 | 95 | 1009.4 |
| 20260901053030 | 15 | 235 | 4.8 | 6.4 | 0.00 | 2.31 | 0.00 | 95 | 1009.3 |
| 20260901052518 | 14 | 257 | 3.2 | 6.4 | 0.00 | 2.31 | 0.00 | 95 | 1009.3 |
| 20260901052019 | 14 | 239 | 4.8 | 6.4 | 0.00 | 2.31 | 0.00 | 95 | 1009.3 |
| 20260901051531 | 14 | 248 | 3.2 | 6.4 | 0.00 | 2.31 | 0.00 | 95 | 1009.3 |
| 20260901051018 | 14 | 251 | 4.8 | 6.4 | 0.00 | 2.31 | 0.00 | 95 | 1009.3 |
| 20260901050519 | 14 | 245 | 3.2 | 6.4 | 0.00 | 2.31 | 0.00 | 95 | 1009.2 |
| 20260901050020 | 14 | 236 | 1.6 | 6.4 | 0.00 | 2.31 | 0.00 | 95 | 1009.2 |
| 20260901045513 | 14 | 242 | 3.2 | 6.4 | 0.00 | 2.31 | 0.00 | 95 | 1009.2 |
| 20260901045014 | 13 | 254 | 3.2 | 6.4 | 0.00 | 2.31 | 0.00 | 95 | 1009.1 |
| 20260901044524 | 13 | 241 | 4.8 | 6.4 | 0.00 | 2.31 | 0.00 | 95 | 1009.1 |
| 20260901044016 | 13 | 247 | 3.2 | 6.4 | 0.00 | 2.31 | 0.00 | 95 | 1009.0 |
| 20260901043517 | 13 | 241 | 3.2 | 6.4 | 0.00 | 2.31 | 0.00 | 95 | 1009.0 |
| 20260901043032 | 13 | 247 | 3.2 | 6.4 | 0.00 | 2.31 | 0.00 | 95 | 1008.9 |
| 20260901042518 | 13 | 246 | 3.2 | 8.0 | 0.00 | 2.31 | 0.00 | 95 | 1008.9 |
| 20260901042018 | 13 | 229 | 4.8 | 8.0 | 0.00 | 2.31 | 0.00 | 95 | 1008.9 |
| 20260901041543 | 13 | 240 | 3.2 | 4.8 | 0.00 | 2.31 | 0.00 | 94 | 1008.9 |
| 20260901041019 | 13 | 240 | 1.6 | 6.4 | 0.00 | 2.31 | 0.00 | 94 | 1008.9 |
| 20260901040519 | 13 | 261 | 3.2 | 6.4 | 0.00 | 2.31 | 0.00 | 94 | 1008.8 |
| 20260901040024 | 13 | 228 | 3.2 | 6.4 | 0.00 | 2.31 | 0.00 | 94 | 1008.8 |
| 20260901035516 | 13 | 259 | 3.2 | 4.8 | 0.00 | 2.31 | 0.00 | 94 | 1008.7 |
| 20260901035017 | 13 | 246 | 3.2 | 6.4 | 0.00 | 2.31 | 0.00 | 94 | 1008.8 |
| 20260901034504 | 13 | 254 | 3.2 | 6.4 | 0.00 | 2.31 | 0.00 | 94 | 1008.7 |
| 20260901034004 | 13 | 251 | 3.2 | 4.8 | 0.00 | 2.31 | 0.00 | 94 | 1008.7 |
| 20260901033508 | 13 | 252 | 3.2 | 4.8 | 0.00 | 2.31 | 0.00 | 94 | 1008.7 |
| 20260901033013 | 13 | 234 | 1.6 | 4.8 | 0.00 | 2.31 | 0.00 | 94 | 1008.7 |
| 20260901032508 | 13 | 208 | 1.6 | 4.8 | 0.00 | 2.31 | 0.00 | 94 | 1008.8 |
| 20260901032008 | 13 | 234 | 3.2 | 4.8 | 0.00 | 2.31 | 0.00 | 94 | 1008.7 |
| 20260901031516 | 13 | 254 | 3.2 | 3.2 | 0.00 | 2.31 | 0.00 | 94 | 1008.7 |
| 20260901031011 | 13 | 205 | 3.2 | 3.2 | 0.00 | 2.31 | 0.00 | 94 | 1008.7 |
| 20260901030514 | 12 | 227 | 1.6 | 3.2 | 0.00 | 2.31 | 0.00 | 94 | 1008.6 |
| 20260901030024 | 12 | 215 | 1.6 | 3.2 | 0.00 | 2.31 | 0.00 | 94 | 1008.7 |
| 20260901025517 | 12 | 233 | 0.0 | 6.4 | 0.00 | 2.31 | 0.00 | 94 | 1008.6 |
| 20260901025003 | 12 | 248 | 1.6 | 6.4 | 0.00 | 2.31 | 0.00 | 94 | 1008.6 |
| 20260901024507 | 12 | 245 | 4.8 | 6.4 | 0.00 | 2.31 | 0.00 | 94 | 1008.6 |
| 20260901024004 | 12 | 250 | 3.2 | 4.8 | 0.00 | 2.31 | 0.00 | 94 | 1008.6 |
| 20260901023508 | 13 | 245 | 3.2 | 4.8 | 0.00 | 2.31 | 0.00 | 94 | 1008.6 |
| 20260901023013 | 13 | 242 | 3.2 | 4.8 | 0.00 | 2.31 | 0.00 | 94 | 1008.7 |
| 20260901022508 | 12 | 221 | 1.6 | 4.8 | 0.00 | 2.31 | 0.00 | 94 | 1008.7 |
| 20260901022008 | 12 | 232 | 0.0 | 4.8 | 0.00 | 2.31 | 0.00 | 94 | 1008.7 |
| 20260901021524 | 12 | 242 | 1.6 | 6.4 | 0.00 | 2.31 | 0.00 | 94 | 1008.7 |
| 20260901021014 | 12 | 250 | 3.2 | 6.4 | 0.00 | 2.31 | 0.00 | 94 | 1008.6 |
| 20260901020513 | 12 | 250 | 1.6 | 6.4 | 0.00 | 2.31 | 0.00 | 94 | 1008.6 |
| 20260901020025 | 13 | 242 | 3.2 | 4.8 | 0.00 | 2.31 | 0.00 | 94 | 1008.5 |
| 20260901015516 | 13 | 211 | 1.6 | 6.4 | 0.00 | 2.31 | 0.00 | 94 | 1008.4 |
| 20260901015003 | 13 | 239 | 3.2 | 8.0 | 0.00 | 2.31 | 0.00 | 94 | 1008.5 |
| 20260901014505 | 13 | 246 | 4.8 | 8.0 | 0.00 | 2.31 | 0.00 | 94 | 1008.4 |
| 20260901014003 | 13 | 248 | 4.8 | 6.4 | 0.00 | 2.31 | 0.00 | 94 | 1008.4 |
| 20260901013509 | 13 | 234 | 4.8 | 8.0 | 0.00 | 2.31 | 0.00 | 94 | 1008.4 |
| 20260901013012 | 13 | 244 | 3.2 | 11.3 | 0.00 | 2.31 | 0.00 | 94 | 1008.3 |
| 20260901012508 | 13 | 247 | 4.8 | 11.3 | 0.00 | 2.31 | 0.00 | 94 | 1008.3 |
| 20260901012014 | 13 | 251 | 4.8 | 11.3 | 0.00 | 2.31 | 0.00 | 94 | 1008.3 |
| 20260901011529 | 13 | 240 | 6.4 | 11.3 | 0.00 | 2.31 | 0.00 | 94 | 1008.3 |
| 20260901011017 | 13 | 235 | 4.8 | 8.0 | 0.00 | 2.31 | 0.00 | 94 | 1008.3 |
| 20260901010516 | 13 | 247 | 4.8 | 12.9 | 0.00 | 2.31 | 0.00 | 94 | 1008.3 |
| 20260901010039 | 13 | 234 | 6.4 | 12.9 | 0.00 | 2.31 | 0.00 | 94 | 1008.3 |
| 20260901005519 | 13 | 229 | 4.8 | 8.0 | 0.00 | 2.31 | 0.00 | 94 | 1008.3 |
| 20260901005008 | 13 | 249 | 4.8 | 8.0 | 0.00 | 2.31 | 0.00 | 94 | 1008.3 |
| 20260901004508 | 13 | 250 | 4.8 | 8.0 | 0.00 | 2.31 | 0.00 | 94 | 1008.3 |
| 20260901004008 | 13 | 248 | 4.8 | 8.0 | 0.00 | 2.31 | 0.00 | 94 | 1008.3 |
| 20260901003508 | 13 | 247 | 4.8 | 8.0 | 0.00 | 2.31 | 0.00 | 94 | 1008.3 |
| 20260901003020 | 13 | 244 | 3.2 | 6.4 | 0.00 | 2.31 | 0.00 | 94 | 1008.3 |
| 20260901002510 | 13 | 236 | 3.2 | 8.0 | 0.00 | 2.34 | 0.00 | 94 | 1008.2 |
| 20260901002018 | 13 | 243 | 4.8 | 8.0 | 0.00 | 2.34 | 0.00 | 94 | 1008.2 |
| 20260901001527 | 13 | 243 | 3.2 | 6.4 | 0.00 | 2.34 | 0.00 | 94 | 1008.2 |
| 20260901001013 | 13 | 252 | 4.8 | 6.4 | 0.00 | 2.34 | 0.00 | 94 | 1008.2 |
| 20260901000516 | 13 | 238 | 4.8 | 6.4 | 0.00 | 2.34 | 0.00 | 94 | 1008.2 |
| 20260901000029 | 13 | 219 | 3.2 | 4.8 | 0.00 | 2.34 | 0.00 | 94 | 1008.2 |
| 20260831235504 | 13 | 227 | 1.6 | 4.8 | 0.00 | 2.34 | 0.00 | 94 | 1008.2 |
| 20260831235006 | 13 | 240 | 1.6 | 4.8 | 0.00 | 2.34 | 0.00 | 94 | 1008.1 |
| 20260831234512 | 13 | 212 | 1.6 | 4.8 | 0.00 | 2.34 | 0.00 | 94 | 1008.1 |
| 20260831234010 | 13 | 200 | 1.6 | 4.8 | 0.00 | 2.34 | 0.00 | 94 | 1008.2 |
| 20260831233511 | 13 | 184 | 3.2 | 4.8 | 0.00 | 2.34 | 0.00 | 94 | 1008.2 |
| 20260831233033 | 13 | 186 | 1.6 | 4.8 | 0.00 | 2.34 | 0.00 | 94 | 1008.2 |
| 20260831232514 | 13 | 230 | 1.6 | 6.4 | 0.00 | 2.34 | 0.00 | 94 | 1008.2 |
| 20260831232017 | 13 | 234 | 3.2 | 6.4 | 0.00 | 2.34 | 0.00 | 94 | 1008.1 |
| 20260831231535 | 13 | 246 | 3.2 | 6.4 | 0.00 | 2.34 | 0.00 | 94 | 1008.1 |